Location: Beetenbrück
(52.8113°N, 9.5946°E)
Time: 21:46:40
(UTC+00:00)

Cosmos 1356 Rocket - Pass Details

Date: 14 April 2026
Orbit: 514 x 556 km, 81.1° (Epoch: 12 May)

Event Time Altitude Azimuth Distance (km) Brightness Sun altitude
Exits shadow 21:50:58 39° 47° (NE) 849 4.3 -24.6°
Drops below altitude 10° 21:53:47 10° 22° (NNE) 1,838 6.5 -24.7°
Sets 21:55:59 0° 17° (NNE) 2,731 7.6 -24.9°
